Location: Molalla
(45.1473°N, 122.5770°W)
Time: 18:37:04
(UTC-08:00)

Explorer 11/Cluster Stage 4 - All Passes

Search period start: 20 November 2019 00:00
Search period end: 30 November 2019 00:00
Orbit: 467 x 1259 km, 28.8° (Epoch: 20 November)

Date Brightness Start Highest point End Pass type
(mag) Time Alt. Az. Time Alt. Az. Time Alt. Az.
20 Nov - 00:00:35 10° SW 00:04:07 14° SSW 00:07:50 10° S night (unlit)
20 Nov - 20:14:07 10° SSW 20:17:30 16° SSE 20:21:15 10° SE visible
20 Nov - 22:01:06 10° SW 22:05:15 18° S 22:09:54 10° SE night (unlit)
20 Nov - 23:50:35 10° SW 23:53:11 12° SSW 23:55:53 10° S night (unlit)
21 Nov - 20:03:32 10° SSW 20:06:40 15° S 20:10:09 10° SE visible
21 Nov - 21:50:40 10° SW 21:54:24 16° S 21:58:31 10° SSE night (unlit)
21 Nov - 23:41:46 10° SSW 23:42:15 10° SSW 23:42:45 10° SSW night (unlit)
22 Nov - 19:53:00 10° SSW 19:55:50 14° S 19:59:00 10° SE visible
22 Nov - 21:40:21 10° SW 21:43:33 15° S 21:47:03 10° SSE night (unlit)
23 Nov - 19:42:33 10° SSW 19:45:03 14° S 19:47:48 10° SE visible
23 Nov - 21:30:14 10° SSW 21:32:43 13° S 21:35:24 10° SSE night (unlit)
24 Nov - 19:32:12 10° SSW 19:34:17 13° S 19:36:32 10° SSE visible
24 Nov - 21:20:32 10° SSW 21:21:54 11° S 21:23:20 10° S night (unlit)
25 Nov - 19:22:01 10° SSW 19:23:32 11° S 19:25:07 10° SSE visible
26 Nov - 19:12:33 10° S 19:12:47 10° S 19:13:01 10° S visible
